Time,TemperatureF,DewpointF,PressureIn,WindDirection,WindDirectionDegrees,WindSpeedMPH,WindSpeedGustMPH,Humidity,HourlyPrecipIn,Conditions,Clouds,dailyrainin,SoftwareType,DateUTC
2013-12-25 00:12:00,20.0,11.0,30.16,WSW,253,4.0,7.0,67,0.00,,,0.00,,2013-12-25 06:12:00,
2013-12-25 00:22:00,21.0,12.0,30.15,West,259,4.0,7.0,67,0.00,,,0.00,,2013-12-25 06:22:00,
2013-12-25 00:42:00,23.0,14.0,30.14,WSW,240,8.0,12.0,68,0.00,,,0.00,,2013-12-25 06:42:00,
2013-12-25 00:52:00,25.0,15.0,30.13,WSW,258,12.0,20.0,66,0.00,,,0.00,,2013-12-25 06:52:00,
2013-12-25 01:22:00,26.0,17.0,30.11,WSW,254,14.0,20.0,67,0.00,,,0.00,,2013-12-25 07:22:00,
2013-12-25 01:42:00,26.0,17.0,30.11,WSW,255,10.0,17.0,67,0.00,,,0.00,,2013-12-25 07:42:00,
2013-12-25 01:52:00,27.0,18.0,30.10,WSW,254,8.0,11.0,69,0.00,,,0.00,,2013-12-25 07:52:00,
2013-12-25 02:11:00,27.0,18.0,30.10,WSW,248,8.0,10.0,68,0.00,,,0.00,,2013-12-25 08:11:00,
2013-12-25 02:21:00,27.0,19.0,30.09,WSW,256,9.0,13.0,70,0.00,,,0.00,,2013-12-25 08:21:00,
2013-12-25 02:42:00,28.0,19.0,30.09,West,260,8.0,12.0,69,0.00,,,0.00,,2013-12-25 08:42:00,
2013-12-25 02:53:00,29.0,20.0,30.09,West,265,9.0,14.0,68,0.00,,,0.00,,2013-12-25 08:53:00,
2013-12-25 03:11:00,29.0,19.0,30.10,WSW,257,11.0,15.0,67,0.00,,,0.00,,2013-12-25 09:11:00,
2013-12-25 03:21:00,29.0,19.0,30.09,West,265,10.0,16.0,67,0.00,,,0.00,,2013-12-25 09:21:00,
2013-12-25 03:42:00,29.0,19.0,30.09,West,262,9.0,12.0,67,0.00,,,0.00,,2013-12-25 09:42:00,
2013-12-25 03:52:00,28.0,18.0,30.09,West,264,9.0,13.0,67,0.00,,,0.00,,2013-12-25 09:52:00,
2013-12-25 04:11:00,28.0,18.0,30.09,West,262,10.0,15.0,67,0.00,,,0.00,,2013-12-25 10:11:00,
2013-12-25 04:22:00,28.0,19.0,30.09,West,260,9.0,11.0,68,0.00,,,0.00,,2013-12-25 10:22:00,
2013-12-25 04:43:00,28.0,19.0,30.09,WSW,257,7.0,12.0,68,0.00,,,0.00,,2013-12-25 10:43:00,
2013-12-25 04:53:00,29.0,20.0,30.09,West,262,8.0,13.0,69,0.00,,,0.00,,2013-12-25 10:53:00,
2013-12-25 05:22:00,30.0,21.0,30.09,West,263,7.0,11.0,68,0.00,,,0.00,,2013-12-25 11:22:00,
2013-12-25 05:42:00,30.0,21.0,30.09,West,263,8.0,13.0,68,0.00,,,0.00,,2013-12-25 11:42:00,
2013-12-25 05:52:00,30.0,21.0,30.09,WSW,258,6.0,10.0,68,0.00,,,0.00,,2013-12-25 11:52:00,
2013-12-25 06:11:00,31.0,22.0,30.09,West,269,7.0,13.0,68,0.00,,,0.00,,2013-12-25 12:11:00,
2013-12-25 06:22:00,31.0,22.0,30.09,West,279,6.0,12.0,68,0.00,,,0.00,,2013-12-25 12:22:00,
2013-12-25 06:42:00,31.0,22.0,30.10,West,271,5.0,9.0,68,0.00,,,0.00,,2013-12-25 12:42:00,
2013-12-25 06:52:00,31.0,22.0,30.11,WSW,242,5.0,9.0,68,0.00,,,0.00,,2013-12-25 12:52:00,
2013-12-25 07:12:00,31.0,21.0,30.11,WNW,282,5.0,13.0,67,0.00,,,0.00,,2013-12-25 13:12:00,
2013-12-25 09:54:00,25.0,15.0,30.21,WNW,283,4.0,13.0,65,0.00,,,0.00,,2013-12-25 15:54:00,
2013-12-25 10:23:00,23.0,13.0,30.23,NW,317,5.0,15.0,64,0.00,,,0.00,,2013-12-25 16:23:00,
2013-12-25 11:22:00,22.0,10.0,30.24,WSW,258,4.0,13.0,60,0.00,,,0.00,,2013-12-25 17:22:00,
2013-12-25 11:42:00,22.0,10.0,30.24,NNW,339,3.0,12.0,60,0.00,,,0.00,,2013-12-25 17:42:00,
2013-12-25 11:52:00,21.0,10.0,30.24,WNW,299,4.0,12.0,61,0.00,,,0.00,,2013-12-25 17:52:00,
2013-12-25 12:12:00,21.0,10.0,30.24,WSW,258,4.0,13.0,61,0.00,,,0.00,,2013-12-25 18:12:00,
2013-12-25 12:22:00,21.0,9.0,30.24,WNW,286,4.0,12.0,59,0.00,,,0.00,,2013-12-25 18:22:00,
2013-12-25 12:42:00,21.0,9.0,30.23,WNW,290,4.0,11.0,58,0.00,,,0.00,,2013-12-25 18:42:00,
2013-12-25 12:52:00,22.0,9.0,30.23,WNW,285,4.0,13.0,56,0.00,,,0.00,,2013-12-25 18:52:00,
2013-12-25 13:12:00,22.0,8.0,30.23,NNW,333,5.0,14.0,53,0.00,,,0.00,,2013-12-25 19:12:00,
2013-12-25 13:52:00,23.0,8.0,30.22,WSW,257,7.0,14.0,52,0.00,,,0.00,,2013-12-25 19:52:00,
2013-12-25 14:11:00,23.0,8.0,30.22,WNW,294,5.0,13.0,52,0.00,,,0.00,,2013-12-25 20:11:00,
2013-12-25 14:21:00,23.0,8.0,30.22,WSW,257,6.0,15.0,53,0.00,,,0.00,,2013-12-25 20:21:00,
2013-12-25 14:42:00,23.0,9.0,30.22,WNW,300,6.0,13.0,54,0.00,,,0.00,,2013-12-25 20:42:00,
2013-12-25 14:52:00,23.0,9.0,30.22,WSW,244,6.0,13.0,55,0.00,,,0.00,,2013-12-25 20:52:00,
2013-12-25 15:22:00,24.0,11.0,30.22,West,273,4.0,11.0,56,0.00,,,0.00,,2013-12-25 21:22:00,
2013-12-25 15:53:00,24.0,11.0,30.22,West,275,3.0,10.0,56,0.00,,,0.00,,2013-12-25 21:53:00,
2013-12-25 16:23:00,24.0,11.0,30.22,WNW,300,5.0,11.0,58,0.00,,,0.00,,2013-12-25 22:23:00,
2013-12-25 16:43:00,24.0,11.0,30.22,West,267,2.0,8.0,58,0.00,,,0.00,,2013-12-25 22:43:00,
2013-12-25 16:52:00,24.0,11.0,30.22,West,278,0.0,7.0,58,0.00,,,0.00,,2013-12-25 22:52:00,
2013-12-25 17:22:00,23.0,11.0,30.22,NW,320,0.0,2.0,59,0.00,,,0.00,,2013-12-25 23:22:00,
2013-12-25 17:42:00,23.0,11.0,30.20,NW,315,0.0,2.0,60,0.00,,,0.00,,2013-12-25 23:42:00,
2013-12-25 17:52:00,23.0,11.0,30.21,West,272,2.0,3.0,60,0.00,,,0.00,,2013-12-25 23:52:00,
2013-12-25 18:11:00,23.0,12.0,30.20,West,260,3.0,5.0,62,0.00,,,0.00,,2013-12-26 00:11:00,
2013-12-25 18:21:00,23.0,12.0,30.19,WSW,257,3.0,7.0,61,0.00,,,0.00,,2013-12-26 00:21:00,
2013-12-25 18:42:00,24.0,13.0,30.19,West,272,4.0,7.0,62,0.00,,,0.00,,2013-12-26 00:42:00,
2013-12-25 18:52:00,25.0,13.0,30.19,WSW,252,6.0,8.0,60,0.00,,,0.00,,2013-12-26 00:52:00,
2013-12-25 19:12:00,25.0,13.0,30.18,West,259,5.0,11.0,60,0.00,,,0.00,,2013-12-26 01:12:00,
2013-12-25 19:21:00,26.0,14.0,30.17,WSW,250,7.0,9.0,59,0.00,,,0.00,,2013-12-26 01:21:00,
2013-12-25 19:42:00,26.0,14.0,30.16,WSW,248,10.0,14.0,59,0.00,,,0.00,,2013-12-26 01:42:00,
2013-12-25 19:52:00,26.0,14.0,30.16,WSW,251,8.0,13.0,60,0.00,,,0.00,,2013-12-26 01:52:00,
2013-12-25 20:11:00,26.0,14.0,30.15,West,269,6.0,10.0,60,0.00,,,0.00,,2013-12-26 02:11:00,
2013-12-25 20:21:00,26.0,14.0,30.15,WSW,258,6.0,10.0,61,0.00,,,0.00,,2013-12-26 02:21:00,
2013-12-25 21:11:00,26.0,14.0,30.14,West,259,6.0,10.0,61,0.00,,,0.00,,2013-12-26 03:11:00,
2013-12-25 21:22:00,26.0,15.0,30.13,West,262,9.0,11.0,62,0.00,,,0.00,,2013-12-26 03:22:00,
2013-12-25 21:53:00,27.0,16.0,30.12,West,263,10.0,15.0,62,0.00,,,0.00,,2013-12-26 03:53:00,
2013-12-25 22:13:00,27.0,16.0,30.12,West,271,8.0,13.0,62,0.00,,,0.00,,2013-12-26 04:13:00,
2013-12-25 22:23:00,26.0,15.0,30.12,WSW,252,8.0,11.0,62,0.00,,,0.00,,2013-12-26 04:23:00,
2013-12-25 22:52:00,26.0,16.0,30.11,West,260,5.0,9.0,64,0.00,,,0.00,,2013-12-26 04:52:00,
2013-12-25 23:02:00,26.0,16.0,30.11,West,260,5.0,9.0,64,0.00,,,0.00,,2013-12-26 05:02:00,
2013-12-25 23:12:00,26.0,16.0,30.11,West,260,5.0,9.0,64,0.00,,,0.00,,2013-12-26 05:12:00,
2013-12-25 23:22:00,26.0,16.0,30.10,WSW,250,6.0,8.0,64,0.00,,,0.00,,2013-12-26 05:22:00,
2013-12-25 23:43:00,26.0,15.0,30.11,West,263,4.0,11.0,63,0.00,,,0.00,,2013-12-26 05:43:00,
2013-12-25 23:53:00,26.0,15.0,30.11,West,263,4.0,11.0,63,0.00,,,0.00,,2013-12-26 05:53:00,